{"data":{"norad_id":40505,"intl_designator":"2015-012A","name":"EXPRESS-AM7","alt_names":[],"object_type":"PAYLOAD","status":"ACTIVE","operator":null,"country":"CIS","launch_date":"2015-03-18","launch_site_code":"TYMSC","launch_vehicle":null,"mission":null,"orbit_class":"UNKNOWN","rcs_meters":12.9055,"size_class":null,"mass_kg":null,"dimensions":null,"purposes":["comms"],"wikipedia_slug":null,"has_3d_model":false,"image_url":null,"decayed_at":null,"tle_current":{"epoch":"2026-05-25T03:56:01.169088Z","epoch_age_seconds":75090,"freshness":"FRESH","line1":"1 40505U 15012A   26145.16390242  .00000148  00000+0  00000+0 0  9999","line2":"2 40505   0.0316 108.9530 0003112 317.5585 275.2508  1.00274284 40778","mean_motion":1.00274284,"eccentricity":0.0003112,"inclination_deg":0.0316,"raan_deg":108.953,"arg_perigee_deg":317.5585,"mean_anomaly_deg":275.2508,"bstar":0,"rev_number":4077,"period_min":1436.0611141337,"perigee_km":35772.772968747,"apogee_km":35799.0158619,"semimajor_km":42164.031415324,"source":"CELESTRAK","updated_at":"2026-05-25T13:38:13.955665Z"}}}